Wind_Speed
45 45 48 48 49 51 52 52 51 51 53 54 54 54 53 53 54 53 53 52 52 51 50 49 48 47 46 44 43 41 41 41 41 40 39 38 38 36 34 33 32 32 31 29 28 27 25 22 21 20 21 22 23 22 21 20 19 19 18 17 16 15 14
41 43 45 47 48 51 52 52 51 50 52 54 54 55 54 54 54 54 54 53 52 51 50 50 49 48 47 45 44 42 42 41 40 40 38 39 39 38 35 33 32 31 30 29 27 26 25 24 21 20 20 22 23 22 22 21 20 20 19 19 18 17 17
41 42 45 48 50 51 52 52 52 51 52 53 55 55 55 56 56 55 54 53 52 52 51 50 49 48 47 46 45 43 42 41 41 40 39 39 40 40 37 35 33 31 30 29 28 26 26 25 23 21 20 21 21 22 23 22 21 21 20 20 19 19 18
43 45 48 51 52 52 51 52 54 53 52 53 55 56 56 56 56 54 53 53 52 52 52 51 49 48 47 46 45 44 43 42 42 41 40 39 39 40 39 37 35 33 32 31 30 28 26 25 24 23 22 21 20 20 22 23 23 22 22 22 21 20 19
43 45 47 47 47 48 49 51 53 54 53 53 54 56 56 56 55 54 53 52 52 51 51 50 49 48 48 47 46 45 44 43 42 42 41 39 39 39 40 39 36 34 33 32 32 30 28 26 25 25 23 22 21 21 21 22 23 23 23 23 22 21 20
42 43 43 43 44 47 49 51 53 55 54 53 54 55 55 54 54 53 53 52 52 51 50 49 49 49 49 48 47 46 45 44 43 43 42 40 39 39 39 38 37 35 34 34 33 32 30 28 27 26 25 24 23 23 23 23 23 24 24 25 24 23 22
43 44 44 44 45 47 49 51 52 54 54 53 53 53 52 53 53 53 53 53 52 51 50 50 49 49 48 48 47 47 45 44 43 43 43 42 40 40 39 38 37 36 35 35 34 33 32 30 29 27 26 25 25 25 25 25 24 24 25 25 26 25 24
45 46 47 47 47 48 48 49 51 52 52 51 50 50 50 51 52 52 53 52 52 51 50 50 49 48 48 47 47 46 45 43 43 43 43 42 42 41 40 39 38 37 36 36 35 34 33 32 31 29 28 27 27 27 27 27 26 25 25 25 26 26 26
47 49 51 50 49 49 48 49 50 50 51 50 50 51 50 50 51 52 53 52 52 51 51 50 49 48 47 47 47 46 45 44 43 43 43 43 43 42 41 41 39 38 37 36 35 35 35 34 33 31 30 29 28 28 28 28 28 27 27 26 26 27 27
46 48 49 49 49 49 48 48 47 48 50 51 51 51 51 51 51 51 52 51 51 51 51 50 49 48 47 47 47 47 46 46 45 44 44 44 44 43 42 42 40 39 38 36 36 36 36 35 34 33 33 32 31 29 29 29 29 28 28 28 28 28 27
45 46 45 45 46 46 44 45 46 48 51 52 51 51 52 53 52 51 51 52 52 52 50 50 49 48 47 47 47 47 47 46 46 46 46 45 45 44 43 43 42 41 40 38 37 36 36 36 35 35 35 34 33 32 31 30 29 29 29 28 28 28 28
41 43 43 44 45 44 44 45 47 49 51 52 53 52 53 53 52 51 51 52 52 51 50 50 49 48 47 47 47 47 46 46 45 45 45 45 45 44 43 43 43 42 42 40 39 37 37 36 36 36 35 35 34 34 33 32 31 30 30 29 28 28 28
38 40 44 46 46 45 46 47 48 50 52 52 53 53 53 53 53 51 51 51 51 50 50 50 49 48 48 47 47 47 46 45 44 43 44 44 44 44 44 43 43 43 42 41 41 40 38 37 37 36 36 35 34 34 34 34 33 32 32 31 30 30 29
39 40 43 46 46 47 48 49 49 50 51 51 51 52 52 52 52 52 51 50 50 49 49 49 49 49 48 47 48 48 47 45 43 42 42 43 44 44 44 44 44 43 42 41 42 42 40 39 37 37 36 36 35 35 35 35 35 34 34 33 32 32 32
39 40 42 43 45 47 49 50 50 50 50 50 50 50 50 50 50 51 50 50 49 49 49 49 48 48 48 48 48 48 46 45 43 42 42 43 44 45 45 45 44 43 43 42 42 42 41 40 39 38 38 37 37 36 36 37 37 36 35 35 34 34 34
37 40 42 43 44 46 48 49 50 51 50 50 50 50 50 49 50 50 50 49 49 48 48 47 47 47 47 47 47 47 46 45 44 43 43 43 44 45 46 46 45 45 44 43 43 42 42 41 41 41 40 39 38 38 38 39 38 37 36 36 35 35 35
38 40 42 44 46 46 46 47 48 49 50 51 51 51 50 49 49 49 49 48 48 47 47 46 47 47 47 47 46 45 45 45 45 44 44 44 44 45 46 46 46 46 46 45 44 43 42 42 43 42 42 41 40 40 40 40 39 38 37 37 36 37 37
38 41 43 45 46 45 45 44 44 47 49 50 51 50 49 48 48 48 48 48 47 46 45 46 46 47 46 45 44 44 44 44 44 45 45 45 45 45 46 46 47 47 47 47 46 44 43 43 43 43 42 42 42 41 41 41 39 38 38 38 38 38 38
37 40 43 45 46 44 43 44 44 47 49 49 49 48 47 47 46 47 47 46 46 45 45 45 45 46 45 44 43 43 43 43 43 44 45 45 46 46 46 47 48 48 48 48 47 45 45 44 44 44 43 43 43 42 42 41 40 39 39 39 38 38 39
38 38 40 43 44 43 43 43 43 45 47 46 45 43 43 44 44 45 45 45 45 45 45 45 45 45 45 44 43 42 41 41 41 41 42 42 44 45 46 47 48 48 48 47 47 47 46 46 45 45 45 44 43 43 43 42 40 40 39 39 38 37 38
34 35 36 39 40 40 42 42 43 43 43 42 40 39 40 41 42 43 44 45 46 46 46 46 45 45 45 44 43 42 41 41 40 39 39 39 41 43 45 46 47 48 48 47 47 48 47 46 46 46 46 45 44 43 43 42 40 39 38 37 36 35 36
30 33 35 37 39 40 41 42 43 42 41 39 39 38 39 40 41 42 42 43 44 45 45 46 46 46 46 45 44 42 41 41 40 39 38 37 39 41 42 44 45 46 47 47 47 47 47 47 47 46 46 46 45 44 43 41 39 39 37 36 35 34 35
25 29 31 34 37 38 40 41 41 41 40 39 38 38 38 39 40 41 40 40 42 43 44 45 46 46 46 46 45 43 42 41 40 39 38 38 39 40 40 41 42 43 45 46 47 47 47 47 47 46 46 46 46 45 44 40 38 38 37 35 34 34 34
23 24 24 26 30 31 33 33 32 32 32 32 33 34 35 37 39 39 39 39 40 41 42 44 45 46 47 46 45 43 42 41 41 40 39 39 39 39 38 39 40 41 42 44 46 46 47 46 46 46 46 46 46 46 45 42 40 39 38 36 35 35 35
27 25 23 22 23 24 24 23 22 23 23 23 24 25 27 30 33 36 37 38 38 39 41 44 45 45 46 46 44 43 42 41 41 40 40 39 38 38 37 37 38 38 40 41 43 44 45 46 47 47 46 46 46 46 46 44 43 42 41 39 37 36 36
28 26 25 23 22 23 24 24 23 23 21 20 20 20 21 23 26 29 33 35 36 38 40 41 42 42 43 44 43 43 42 42 41 41 40 40 38 37 36 36 36 37 39 40 41 42 43 45 46 47 47 46 46 46 46 45 43 42 41 40 39 38 37
29 27 25 23 20 20 22 23 23 22 20 18 18 19 21 23 24 26 27 29 32 35 37 37 38 38 40 42 42 43 42 42 41 41 40 39 37 37 37 37 37 38 38 39 39 40 41 43 45 46 46 45 45 45 44 43 42 42 41 40 39 38 37
27 25 22 20 19 17 16 16 17 17 16 14 14 15 18 21 24 25 26 28 29 29 29 31 33 35 37 39 40 41 42 42 42 41 39 38 37 37 38 38 38 38 38 38 39 39 40 41 42 43 44 44 44 43 42 41 40 40 40 40 39 38 38
24 22 20 19 17 15 13 10 7 7 7 8 9 11 14 17 21 23 26 29 28 27 27 27 27 29 32 35 37 38 39 40 40 40 39 38 38 38 38 38 39 39 39 38 38 39 39 40 40 41 42 42 42 41 40 38 37 37 37 36 35 35 35
22 21 19 18 17 15 13 9 6 3 1 4 6 9 12 15 19 21 24 26 27 27 29 28 27 26 27 30 32 34 35 35 35 36 36 37 37 37 38 39 39 40 39 39 38 38 38 38 38 38 39 39 39 38 36 35 34 33 33 31 29 29 29
21 19 17 16 15 13 11 10 7 5 3 3 6 7 8 12 17 21 24 25 24 25 27 28 29 29 28 28 28 30 32 32 32 32 33 34 35 36 37 38 39 40 40 38 37 37 36 36 35 35 36 36 36 35 35 34 33 32 31 29 27 26 26
20 19 18 16 14 11 9 7 6 6 5 4 5 7 7 8 11 16 22 25 25 25 25 25 26 28 30 30 29 28 28 30 30 30 31 32 33 34 35 36 37 38 38 37 36 35 34 33 33 33 33 33 32 33 34 34 33 31 29 27 26 25 25
20 19 19 17 14 11 8 5 4 5 5 4 4 5 6 6 7 11 16 21 24 24 24 23 24 24 26 29 30 29 28 28 29 29 29 30 31 32 34 35 35 36 37 36 35 34 32 32 31 31 31 31 30 31 32 33 32 30 28 26 25 24 24
20 19 18 17 14 12 9 7 5 6 8 8 6 5 6 5 6 8 11 15 19 20 20 20 20 21 22 25 28 29 28 28 28 29 29 30 32 33 34 34 34 35 34 33 32 31 30 30 30 29 28 28 28 29 30 30 30 29 27 26 24 22 22
19 18 18 17 15 12 10 8 7 9 10 11 10 8 7 7 7 8 9 11 14 16 15 15 16 17 19 22 26 27 26 27 29 29 30 31 33 34 34 33 32 32 30 29 28 27 26 26 26 26 26 26 27 27 28 28 28 27 25 24 22 20 19
17 17 17 16 14 12 11 10 9 9 9 11 13 12 10 10 10 10 11 11 12 13 14 14 15 17 19 22 25 25 26 27 29 30 31 32 34 34 33 31 30 29 27 26 25 25 25 24 23 24 24 25 26 27 26 27 27 26 24 22 20 19 18
17 17 17 16 15 13 12 10 9 9 8 10 16 16 11 11 12 12 12 12 12 13 14 14 16 18 20 22 24 25 26 28 30 31 32 33 33 32 31 30 28 27 26 26 26 25 24 24 24 24 24 24 25 26 25 24 23 22 21 20 19 18 18
14 15 15 15 14 12 11 9 9 9 9 11 16 16 11 11 12 12 13 13 14 14 13 14 16 18 20 22 23 25 27 29 30 31 31 32 31 30 29 28 27 26 25 24 25 25 24 23 23 23 22 21 22 23 22 21 20 19 19 18 17 16 15
Wind_Direction
191 192 192 192 193 195 197 197 197 198 198 199 199 200 200 201 201 202 204 206 209 210 212 214 215 217 218 220 221 222 223 223 222 222 223 222 222 221 221 221 220 220 221 224 227 226 224 219 216 216 215 214 215 217 217 216 216 216 219 224 227 230 233
191 193 192 193 195 196 198 197 197 198 199 200 200 200 201 201 201 203 205 208 210 212 214 215 217 218 219 220 221 221 222 222 222 222 223 223 221 221 223 223 224 224 225 227 227 225 224 221 219 218 216 215 214 215 218 219 219 220 221 224 227 230 232
192 194 193 195 197 197 198 197 197 199 200 200 200 201 201 202 203 205 206 208 210 211 214 216 218 219 220 220 220 221 223 223 223 224 225 225 223 222 223 225 226 227 228 227 225 223 223 223 222 220 218 218 216 214 216 219 221 222 224 226 228 230 232
194 195 195 198 199 198 198 198 198 199 200 201 201 202 202 203 205 207 208 209 209 210 212 215 218 219 219 220 221 222 223 224 225 226 227 226 225 223 223 225 226 227 227 226 225 222 222 223 225 224 221 220 219 218 217 217 220 223 225 228 230 231 234
196 196 197 198 198 198 198 199 199 199 200 202 202 203 204 204 205 206 209 210 211 212 214 215 217 218 219 220 222 223 224 225 226 227 228 227 226 224 224 225 226 225 224 224 223 222 222 223 225 227 226 224 224 224 222 221 221 223 225 228 230 232 234
195 195 197 198 197 198 199 200 200 199 200 202 203 204 204 204 205 206 209 210 212 213 215 216 216 218 219 221 222 223 224 225 226 227 228 227 226 225 225 225 224 224 223 222 222 222 222 224 225 227 228 228 228 227 226 226 224 223 225 227 231 233 234
193 193 196 197 197 199 200 200 201 200 201 202 203 204 204 204 205 207 209 210 211 213 214 215 217 218 220 221 222 223 224 226 226 227 228 228 227 226 225 225 224 223 222 220 221 221 222 224 225 227 229 230 230 229 228 229 227 226 225 227 230 233 235
192 192 195 197 197 199 200 200 201 200 201 201 202 203 203 205 206 206 208 210 211 212 214 216 217 218 220 221 222 224 225 227 227 227 228 228 228 227 226 225 224 224 222 220 221 222 223 225 226 228 230 231 232 231 230 231 231 231 229 228 230 233 235
192 193 196 196 197 199 200 200 201 200 200 200 201 203 203 204 206 207 208 210 211 212 215 217 219 219 220 221 223 224 225 226 227 228 229 229 229 228 226 226 225 225 224 222 221 222 224 226 228 229 230 231 232 232 232 233 234 234 234 232 231 232 235
192 194 196 195 195 199 199 199 199 198 199 200 201 202 203 204 206 207 208 209 211 213 216 218 219 219 220 222 223 224 224 225 226 227 228 229 229 228 227 226 226 226 226 224 223 223 224 226 228 229 230 231 231 233 233 234 235 236 236 235 233 232 234
190 192 193 192 194 197 197 197 198 198 199 200 201 202 204 205 207 207 208 210 212 214 216 217 219 219 221 223 223 223 223 225 226 227 228 229 230 229 228 227 227 227 227 227 226 225 226 226 227 229 230 230 231 233 235 235 236 237 238 238 236 235 235
189 189 190 191 193 195 195 197 198 199 200 201 202 203 205 206 207 207 209 211 213 214 215 217 218 220 221 223 223 223 224 225 227 229 230 230 230 230 230 229 228 228 227 228 228 228 228 228 228 229 230 231 232 234 236 238 238 239 241 242 241 240 238
188 188 188 190 193 195 195 197 198 200 201 202 203 205 206 206 207 208 210 211 213 214 215 216 218 219 221 222 223 224 225 226 228 230 231 232 232 232 231 230 230 229 228 229 229 230 230 230 230 231 232 233 235 236 238 239 240 241 243 243 244 245 244
186 187 188 190 192 194 195 196 198 199 200 202 204 205 207 208 208 209 211 212 213 214 215 216 217 218 220 222 223 225 226 228 229 231 232 233 234 233 233 232 231 231 230 230 230 231 232 232 233 233 234 235 237 238 240 240 241 242 243 244 244 245 246
183 185 188 190 192 194 196 196 197 199 200 202 203 204 206 207 209 210 211 212 213 214 215 216 216 218 219 221 224 226 227 228 229 231 232 233 233 234 233 233 233 233 232 232 231 232 232 234 235 235 236 237 238 239 240 241 242 244 244 245 245 246 247
182 184 187 191 193 195 197 198 199 200 201 202 203 204 205 206 208 209 211 212 213 214 215 215 217 218 219 221 225 228 228 229 230 231 232 232 233 234 234 233 233 233 234 234 234 234 234 234 235 236 237 238 239 240 240 241 243 245 246 247 247 247 249
184 185 188 192 195 197 199 200 200 201 201 202 204 205 205 207 208 209 211 212 213 214 214 215 217 219 222 224 227 229 230 230 231 231 232 233 234 235 235 234 233 233 234 235 235 235 235 235 235 236 238 239 241 241 242 242 244 246 247 248 249 249 250
186 187 190 194 197 197 198 199 201 201 202 203 205 205 206 208 208 208 210 211 213 214 214 216 218 220 223 226 228 229 230 231 231 232 233 234 234 235 235 234 233 233 233 235 235 236 237 237 237 237 238 240 241 243 244 245 247 249 249 250 250 250 250
188 190 193 195 198 198 197 200 202 204 205 205 206 207 209 210 209 210 211 212 212 214 215 216 219 221 224 227 228 230 231 232 233 233 233 234 235 235 235 234 234 234 233 234 235 236 237 238 238 238 238 239 242 244 246 248 250 251 251 252 253 253 252
190 193 196 197 198 198 198 201 204 207 208 208 209 212 212 213 215 216 216 214 214 215 216 217 219 222 224 227 228 230 232 233 233 234 235 236 236 235 234 235 235 235 234 234 234 235 237 239 239 240 240 240 242 245 247 250 251 252 252 253 254 255 254
188 193 196 197 198 198 199 202 205 207 210 211 213 213 213 215 217 218 217 216 215 216 216 218 220 222 225 227 229 231 232 232 233 234 236 236 236 236 236 236 237 236 235 234 234 236 238 239 240 241 241 242 243 246 248 251 252 253 254 254 255 255 255
184 191 195 198 199 199 201 205 208 210 212 213 213 212 212 214 216 217 216 216 216 216 217 218 220 222 225 227 229 230 232 233 233 234 236 236 236 236 237 238 238 238 237 235 235 237 238 239 240 242 242 243 244 245 248 252 253 253 254 255 255 255 256
171 184 190 196 200 202 205 208 212 213 212 212 212 212 214 214 215 217 217 217 217 217 218 219 220 222 224 227 229 230 232 233 234 235 236 236 236 237 238 239 240 239 238 236 236 237 238 239 241 242 243 244 244 245 248 252 253 253 255 256 256 255 256
139 156 168 182 190 196 202 205 208 210 211 213 215 217 219 219 219 220 220 220 220 220 220 221 222 224 225 226 229 231 232 234 235 236 237 237 238 239 240 241 241 240 239 238 238 238 239 240 241 242 243 244 245 246 249 252 253 253 254 256 256 256 257
114 124 134 150 165 172 180 183 186 190 195 201 206 211 218 222 224 225 225 226 225 224 224 225 226 227 227 228 230 231 233 235 236 236 237 238 240 242 243 243 243 242 241 241 241 241 241 240 240 242 244 245 246 247 249 250 252 252 253 254 254 255 256
101 107 112 121 135 147 155 160 164 167 169 176 186 194 204 212 218 223 226 227 227 226 228 230 230 231 231 231 232 233 234 235 236 237 238 239 241 243 244 245 244 243 242 242 243 243 243 241 241 242 244 246 246 247 248 249 250 251 253 254 254 254 254
92 96 98 101 111 128 143 151 158 161 162 167 178 189 197 204 210 217 221 224 225 228 231 233 233 234 233 233 233 234 234 235 236 237 239 240 242 243 243 244 244 243 243 242 243 244 244 243 243 243 245 246 247 247 248 249 250 252 254 255 255 255 255
80 81 82 84 93 107 121 136 152 164 170 173 179 187 194 200 206 211 217 221 225 230 234 236 236 236 235 234 234 234 235 236 236 237 237 238 239 240 241 242 243 243 244 243 243 243 244 244 244 244 246 247 247 248 249 250 252 254 256 257 257 258 258
68 66 65 67 72 77 82 95 123 156 181 193 197 200 202 205 206 208 214 220 225 229 232 234 237 238 238 237 236 235 235 236 236 236 235 235 235 236 238 240 241 242 242 242 242 243 243 244 245 245 246 247 247 248 250 252 254 256 257 257 258 259 260
62 58 55 52 51 51 51 55 62 68 211 227 225 220 219 220 218 217 218 221 224 227 229 230 232 235 239 240 240 239 237 236 235 235 234 234 233 233 235 237 239 240 241 242 242 242 242 244 244 245 246 247 247 247 248 249 251 252 253 253 253 255 256
55 51 47 42 42 40 33 30 29 17 346 295 270 258 244 234 229 228 229 229 229 229 230 230 230 231 235 239 241 241 240 237 235 234 233 233 232 231 232 234 236 238 239 240 240 241 242 243 244 245 246 246 245 244 245 246 246 247 249 249 249 250 249
50 46 41 38 39 38 32 24 11 357 346 311 275 273 274 258 241 235 236 237 237 236 234 233 231 231 232 235 238 240 240 238 236 233 231 232 232 232 233 233 235 236 237 238 238 239 241 242 243 244 244 244 244 243 243 244 244 245 247 247 245 244 242
44 40 36 33 32 32 34 26 2 349 344 327 289 274 280 274 256 247 242 241 241 242 241 239 235 232 231 232 235 236 237 238 236 231 228 228 230 231 232 233 234 235 235 236 236 236 238 239 240 241 242 242 241 241 241 242 242 242 243 243 242 241 240
38 34 30 28 25 25 27 20 4 352 345 338 319 288 280 273 255 250 250 247 246 246 245 243 238 233 230 230 231 232 233 235 234 229 225 224 224 225 226 227 230 232 234 235 236 237 238 239 239 240 240 239 239 238 238 239 240 240 241 241 242 242 243
31 29 26 23 20 20 22 19 8 354 345 339 327 301 279 270 257 245 243 248 249 248 246 243 237 231 227 227 227 227 227 228 228 226 223 221 220 219 219 220 223 227 231 234 237 239 241 241 241 239 236 235 235 235 235 235 236 237 238 239 241 244 247
25 23 22 21 18 13 11 11 4 353 344 334 327 313 283 266 265 253 242 242 242 241 239 235 229 224 222 223 223 220 220 222 222 221 221 220 219 217 215 215 218 222 227 231 234 237 238 239 238 237 234 232 231 231 231 231 230 231 233 237 242 246 249
20 19 17 16 14 8 5 2 352 343 335 328 329 322 294 269 269 262 249 243 240 236 231 227 225 221 218 218 218 216 216 217 216 216 216 216 216 216 214 213 214 217 222 227 229 230 231 232 232 231 230 228 227 225 223 224 225 226 228 232 236 240 244
15 18 16 11 10 6 358 352 345 339 336 331 328 319 293 275 279 276 263 250 242 237 229 223 223 220 215 213 213 213 213 213 212 211 212 211 212 213 214 213 213 211 212 216 219 220 220 222 224 224 220 218 220 222 222 221 221 221 222 224 228 235 243
Height
1439 1441 1444 1448 1452 1455 1458 1462 1466 1470 1473 1476 1478 1481 1484 1487 1489 1492 1495 1499 1502 1505 1508 1511 1513 1516 1519 1521 1524 1526 1529 1532 1535 1537 1540 1542 1543 1546 1548 1550 1552 1554 1556 1558 1559 1561 1563 1565 1567 1568 1570 1572 1573 1574 1576 1577 1577 1578 1579 1580 1580 1581 1582
1437 1439 1441 1445 1448 1451 1455 1459 1463 1466 1470 1473 1475 1478 1481 1483 1486 1488 1491 1495 1498 1502 1505 1508 1510 1513 1515 1518 1521 1523 1526 1529 1532 1535 1537 1539 1541 1543 1546 1548 1550 1552 1554 1556 1558 1560 1562 1564 1565 1567 1568 1570 1571 1573 1574 1575 1576 1577 1578 1579 1579 1580 1580
1433 1436 1438 1441 1443 1446 1451 1455 1459 1462 1466 1469 1472 1475 1477 1479 1481 1484 1487 1491 1495 1499 1502 1504 1507 1509 1512 1515 1518 1520 1523 1526 1529 1532 1534 1537 1539 1541 1543 1546 1548 1550 1552 1554 1556 1558 1560 1562 1563 1565 1567 1568 1570 1571 1573 1574 1575 1576 1577 1577 1578 1578 1579
1427 1430 1432 1436 1438 1443 1448 1451 1455 1458 1462 1465 1468 1471 1473 1476 1479 1481 1485 1487 1491 1495 1498 1501 1504 1507 1510 1512 1515 1517 1520 1523 1526 1529 1531 1534 1536 1539 1541 1543 1545 1548 1550 1552 1554 1556 1558 1560 1562 1563 1565 1566 1568 1569 1571 1572 1573 1574 1575 1576 1576 1577 1578
1423 1426 1430 1434 1437 1442 1445 1448 1452 1455 1458 1462 1465 1468 1471 1474 1477 1480 1483 1485 1488 1491 1494 1499 1502 1505 1508 1510 1512 1514 1517 1520 1523 1525 1528 1531 1534 1536 1538 1540 1542 1545 1547 1549 1552 1554 1556 1558 1560 1561 1563 1565 1566 1567 1569 1570 1571 1573 1573 1574 1575 1575 1576
1419 1423 1428 1432 1436 1439 1441 1445 1448 1451 1455 1458 1462 1466 1469 1472 1475 1477 1480 1483 1486 1489 1493 1496 1500 1502 1505 1507 1510 1512 1514 1517 1520 1523 1526 1528 1531 1533 1535 1537 1540 1542 1545 1547 1549 1551 1553 1555 1557 1559 1561 1562 1564 1565 1566 1568 1569 1570 1571 1572 1573 1573 1574
1414 1418 1423 1427 1431 1435 1438 1442 1445 1448 1452 1456 1460 1464 1467 1470 1472 1474 1477 1480 1483 1487 1490 1493 1496 1499 1501 1504 1507 1510 1512 1514 1517 1520 1523 1525 1528 1530 1532 1535 1537 1540 1542 1545 1547 1549 1550 1552 1554 1556 1558 1560 1561 1562 1564 1565 1566 1568 1569 1570 1571 1571 1572
1409 1413 1418 1422 1426 1431 1435 1439 1443 1446 1451 1455 1459 1462 1465 1467 1469 1472 1474 1477 1480 1484 1486 1489 1492 1495 1498 1501 1503 1506 1508 1511 1514 1517 1519 1522 1525 1527 1530 1532 1534 1537 1540 1542 1544 1546 1547 1549 1551 1553 1555 1557 1558 1560 1561 1562 1564 1565 1566 1567 1568 1569 1570
1404 1408 1412 1416 1422 1427 1431 1435 1439 1444 1449 1452 1456 1459 1462 1465 1467 1469 1471 1474 1477 1480 1483 1485 1488 1492 1495 1498 1500 1502 1505 1508 1511 1514 1516 1519 1521 1524 1526 1529 1531 1534 1536 1538 1541 1542 1544 1546 1548 1550 1552 1554 1555 1557 1558 1560 1561 1562 1563 1564 1566 1566 1567
1401 1405 1409 1414 1419 1424 1428 1433 1437 1442 1446 1449 1451 1455 1459 1461 1464 1466 1469 1471 1474 1476 1479 1483 1486 1489 1492 1495 1497 1500 1503 1505 1508 1510 1513 1515 1518 1520 1523 1526 1529 1531 1533 1535 1538 1539 1541 1543 1545 1547 1549 1551 1552 1554 1555 1557 1558 1559 1560 1561 1563 1563 1564
1398 1403 1408 1413 1418 1422 1427 1431 1435 1439 1442 1445 1448 1451 1454 1458 1460 1463 1466 1468 1470 1472 1476 1480 1483 1486 1489 1491 1494 1497 1500 1502 1504 1507 1509 1512 1514 1517 1520 1523 1526 1528 1530 1532 1534 1536 1538 1540 1542 1544 1546 1547 1549 1550 1552 1553 1555 1556 1557 1558 1559 1560 1561
1397 1401 1405 1411 1416 1420 1425 1428 1431 1435 1438 1441 1444 1447 1450 1454 1457 1460 1463 1465 1467 1470 1473 1476 1479 1482 1485 1488 1491 1493 1496 1498 1501 1503 1505 1508 1511 1514 1518 1520 1523 1525 1527 1529 1531 1533 1535 1537 1539 1540 1542 1544 1545 1547 1548 1550 1552 1553 1554 1555 1556 1557 1558
1396 1399 1403 1408 1413 1417 1421 1424 1427 1431 1434 1437 1440 1444 1447 1450 1454 1457 1460 1463 1465 1468 1470 1473 1476 1478 1481 1484 1487 1490 1492 1494 1496 1499 1502 1505 1508 1512 1514 1517 1519 1522 1524 1526 1528 1530 1532 1533 1535 1537 1539 1540 1542 1543 1545 1546 1548 1549 1550 1552 1552 1553 1555
1393 1398 1402 1406 1410 1413 1416 1420 1423 1426 1430 1434 1437 1441 1444 1448 1451 1454 1457 1460 1463 1466 1468 1470 1473 1475 1478 1481 1483 1485 1487 1490 1493 1496 1499 1502 1505 1508 1511 1513 1516 1518 1521 1523 1525 1526 1528 1530 1532 1533 1535 1537 1538 1540 1541 1543 1544 1546 1547 1548 1549 1550 1551
1391 1395 1400 1404 1407 1410 1413 1416 1419 1422 1426 1430 1434 1438 1442 1445 1449 1452 1454 1457 1460 1463 1465 1468 1470 1473 1475 1477 1479 1481 1484 1487 1490 1493 1496 1499 1502 1504 1507 1510 1512 1515 1517 1519 1521 1523 1525 1526 1528 1530 1532 1533 1535 1536 1538 1539 1540 1541 1543 1544 1545 1546 1546
1388 1393 1397 1401 1404 1408 1410 1413 1415 1418 1423 1427 1431 1435 1438 1441 1444 1447 1450 1454 1457 1459 1462 1465 1468 1470 1472 1474 1476 1479 1482 1485 1487 1490 1493 1495 1498 1500 1503 1506 1509 1511 1513 1515 1517 1519 1521 1523 1525 1526 1528 1530 1531 1533 1534 1535 1536 1537 1538 1540 1541 1542 1543
1386 1390 1394 1397 1401 1404 1408 1411 1414 1417 1420 1424 1427 1431 1434 1437 1440 1444 1448 1451 1454 1457 1460 1463 1465 1467 1469 1471 1474 1477 1479 1482 1484 1486 1489 1491 1494 1497 1499 1502 1505 1507 1509 1511 1513 1515 1517 1520 1521 1523 1524 1526 1527 1529 1530 1531 1532 1533 1535 1536 1537 1538 1540
1384 1387 1390 1394 1398 1401 1405 1410 1414 1417 1419 1421 1425 1428 1432 1434 1438 1441 1444 1447 1451 1455 1458 1460 1462 1464 1466 1469 1472 1474 1476 1478 1481 1483 1485 1487 1490 1492 1495 1499 1501 1503 1505 1507 1509 1511 1513 1515 1517 1519 1521 1522 1523 1525 1526 1526 1528 1529 1531 1532 1533 1535 1537
1383 1386 1388 1391 1395 1399 1403 1407 1411 1414 1417 1420 1423 1426 1429 1432 1435 1438 1441 1445 1449 1452 1455 1457 1459 1461 1463 1466 1469 1471 1473 1476 1478 1479 1482 1484 1486 1490 1493 1495 1497 1499 1501 1503 1506 1508 1510 1511 1513 1515 1517 1518 1519 1520 1521 1522 1524 1525 1527 1529 1530 1532 1534
1382 1385 1387 1390 1393 1397 1401 1405 1409 1413 1416 1419 1422 1424 1428 1431 1433 1435 1439 1443 1446 1449 1452 1454 1456 1458 1460 1463 1465 1468 1470 1472 1474 1476 1479 1481 1484 1487 1490 1491 1493 1495 1498 1501 1503 1505 1506 1507 1509 1511 1512 1514 1515 1516 1517 1518 1520 1522 1524 1525 1527 1529 1531
1381 1384 1387 1390 1393 1396 1400 1404 1408 1412 1415 1418 1421 1424 1427 1429 1431 1435 1438 1440 1443 1446 1448 1451 1453 1455 1457 1459 1462 1464 1467 1469 1471 1474 1476 1479 1482 1484 1486 1488 1489 1492 1494 1497 1499 1501 1502 1504 1505 1507 1508 1510 1511 1513 1513 1514 1516 1518 1520 1522 1524 1526 1528
1381 1384 1387 1389 1393 1396 1399 1403 1407 1410 1414 1417 1420 1423 1426 1428 1431 1433 1436 1438 1441 1443 1445 1448 1450 1451 1453 1455 1458 1461 1463 1466 1469 1471 1474 1476 1478 1480 1482 1484 1485 1488 1490 1493 1495 1497 1499 1500 1502 1503 1504 1506 1508 1509 1510 1510 1512 1515 1517 1519 1521 1524 1525
1382 1386 1388 1391 1394 1397 1400 1404 1406 1410 1413 1416 1419 1422 1424 1427 1430 1432 1434 1436 1438 1441 1443 1445 1446 1448 1450 1452 1454 1457 1460 1463 1466 1468 1471 1473 1475 1476 1478 1480 1482 1484 1487 1490 1491 1493 1494 1496 1497 1499 1501 1502 1504 1505 1506 1507 1509 1512 1514 1516 1519 1521 1522
1384 1388 1390 1393 1396 1399 1402 1405 1408 1412 1415 1418 1420 1422 1424 1427 1429 1430 1432 1434 1436 1439 1441 1442 1443 1445 1447 1449 1452 1455 1457 1460 1462 1465 1467 1469 1471 1473 1475 1477 1479 1482 1484 1486 1487 1489 1490 1492 1494 1496 1498 1499 1500 1501 1503 1504 1507 1510 1512 1514 1516 1518 1519
1386 1389 1392 1395 1398 1400 1403 1407 1410 1414 1417 1419 1420 1422 1424 1426 1428 1429 1431 1432 1434 1437 1438 1438 1440 1442 1444 1446 1449 1452 1455 1457 1459 1461 1463 1466 1468 1470 1472 1475 1477 1479 1481 1483 1484 1486 1488 1490 1492 1493 1494 1496 1497 1499 1500 1502 1505 1507 1509 1511 1513 1515 1516
1388 1391 1394 1396 1399 1402 1404 1408 1411 1414 1416 1418 1420 1422 1423 1425 1427 1428 1429 1431 1433 1434 1434 1435 1437 1440 1442 1445 1447 1449 1451 1453 1456 1458 1460 1462 1465 1468 1470 1472 1474 1476 1478 1480 1481 1483 1485 1487 1489 1490 1491 1493 1495 1496 1498 1500 1502 1504 1505 1507 1509 1511 1513
1391 1393 1396 1399 1401 1403 1405 1408 1410 1413 1415 1417 1419 1421 1423 1424 1425 1427 1428 1430 1431 1431 1431 1434 1436 1438 1440 1442 1444 1446 1448 1450 1452 1455 1457 1460 1462 1465 1467 1469 1471 1473 1474 1476 1479 1480 1482 1484 1485 1487 1488 1490 1492 1494 1496 1498 1500 1501 1502 1504 1505 1507 1508
1395 1396 1399 1401 1402 1404 1406 1408 1410 1412 1414 1417 1419 1420 1422 1423 1424 1425 1427 1428 1428 1429 1431 1433 1435 1436 1438 1440 1441 1443 1445 1447 1449 1451 1454 1457 1459 1462 1464 1466 1468 1470 1471 1473 1475 1477 1479 1480 1482 1484 1485 1487 1489 1491 1493 1496 1497 1498 1499 1500 1501 1503 1504
1397 1399 1401 1402 1404 1406 1407 1409 1411 1413 1415 1416 1418 1419 1420 1421 1422 1423 1424 1425 1426 1428 1430 1432 1433 1435 1436 1437 1439 1440 1442 1444 1446 1448 1451 1454 1456 1459 1461 1463 1465 1467 1468 1470 1472 1474 1476 1477 1479 1481 1482 1484 1486 1488 1491 1493 1494 1494 1495 1496 1498 1499 1500
1400 1402 1403 1405 1406 1408 1409 1411 1413 1414 1416 1416 1417 1418 1419 1420 1420 1421 1422 1422 1424 1426 1427 1429 1431 1433 1434 1435 1436 1437 1439 1441 1443 1446 1448 1450 1453 1456 1458 1460 1462 1464 1465 1468 1469 1471 1473 1474 1476 1478 1479 1481 1484 1486 1488 1489 1490 1490 1491 1492 1494 1496 1497
1404 1405 1406 1408 1409 1410 1411 1412 1413 1414 1415 1415 1416 1417 1418 1418 1419 1419 1420 1420 1422 1423 1424 1426 1428 1430 1431 1432 1434 1435 1437 1439 1441 1443 1445 1448 1450 1452 1454 1457 1459 1460 1463 1465 1467 1468 1470 1471 1473 1475 1477 1479 1481 1483 1484 1485 1485 1486 1487 1489 1491 1493 1494
1407 1408 1410 1411 1412 1412 1413 1414 1414 1415 1416 1416 1417 1417 1417 1417 1417 1417 1418 1418 1419 1421 1422 1424 1425 1427 1428 1430 1432 1433 1435 1437 1439 1441 1443 1445 1447 1449 1452 1454 1456 1457 1460 1461 1463 1465 1467 1468 1470 1472 1474 1476 1479 1480 1481 1481 1482 1483 1484 1486 1488 1489 1490
1407 1409 1410 1411 1412 1413 1414 1414 1415 1416 1417 1417 1418 1417 1417 1416 1415 1416 1416 1417 1417 1419 1420 1421 1423 1424 1426 1428 1430 1432 1433 1435 1437 1439 1441 1443 1445 1447 1449 1451 1453 1455 1456 1458 1460 1462 1464 1465 1467 1469 1471 1474 1476 1477 1477 1478 1479 1480 1482 1483 1485 1486 1488
1409 1410 1411 1412 1412 1413 1414 1414 1416 1416 1417 1417 1416 1416 1416 1415 1415 1415 1416 1416 1416 1417 1418 1419 1420 1422 1423 1425 1428 1430 1432 1433 1435 1437 1439 1441 1443 1444 1446 1448 1450 1452 1453 1455 1457 1459 1461 1463 1464 1467 1469 1471 1472 1473 1474 1475 1477 1478 1479 1481 1482 1484 1485
1412 1413 1413 1413 1413 1414 1414 1415 1415 1416 1416 1416 1415 1415 1415 1415 1415 1415 1416 1416 1416 1416 1416 1417 1418 1420 1421 1423 1425 1428 1430 1431 1433 1435 1437 1438 1439 1441 1443 1446 1448 1450 1451 1454 1456 1457 1459 1460 1462 1464 1466 1468 1469 1471 1472 1473 1475 1476 1478 1479 1480 1482 1483
1416 1416 1415 1414 1414 1414 1414 1415 1415 1416 1416 1416 1415 1415 1414 1414 1415 1415 1416 1416 1416 1416 1416 1416 1417 1418 1420 1421 1423 1426 1427 1429 1431 1433 1434 1435 1436 1439 1441 1443 1446 1448 1450 1452 1453 1455 1457 1458 1460 1462 1464 1465 1467 1468 1470 1471 1473 1474 1476 1477 1479 1480 1481
1416 1415 1414 1414 1414 1414 1415 1416 1416 1417 1416 1415 1414 1414 1414 1414 1414 1415 1415 1416 1416 1416 1416 1416 1417 1418 1419 1420 1422 1423 1425 1427 1429 1430 1432 1433 1435 1437 1439 1441 1444 1446 1448 1450 1451 1453 1454 1456 1458 1459 1461 1463 1465 1466 1468 1470 1471 1473 1474 1476 1477 1478 1479
1416 1416 1415 1414 1414 1415 1416 1417 1416 1416 1415 1415 1414 1414 1413 1413 1414 1414 1415 1415 1415 1416 1415 1415 1416 1417 1418 1419 1420 1422 1424 1425 1427 1428 1430 1432 1434 1436 1438 1440 1442 1444 1446 1448 1449 1451 1452 1454 1456 1458 1459 1461 1463 1465 1466 1468 1469 1471 1473 1474 1475 1476 1477